Location: Newark
(7.0858°N, 171.3717°E)
Time: 05:04:36
(UTC+00:00)

Courier 1B - Pass Details

Date: 30 November 2020
Orbit: 962 x 1209 km, 28.3° (Epoch: 20 January)

Event Time Altitude Azimuth Distance (km) Brightness Sun altitude
Rises 05:12:04 0° 218° (SW) 3,683 11.7 13.7°
Reaches altitude 10° 05:15:10 10° 206° (SSW) 2,711 10.8 13.0°
Maximum altitude 05:20:35 27° 150° (SSE) 1,736 8.9 11.7°
Drops below altitude 10° 05:25:56 10° 93° (E) 2,686 9.3 10.5°
Sets 05:28:58 0° 82° (E) 3,644 9.9 9.8°
